EET,Max TemperatureF,Mean TemperatureF,Min TemperatureF,Max Dew PointF,MeanDew PointF,Min DewpointF,Max Humidity, Mean Humidity, Min Humidity, Max Sea Level PressureIn, Mean Sea Level PressureIn, Min Sea Level PressureIn, Max VisibilityMiles, Mean VisibilityMiles, Min VisibilityMiles, Max Wind SpeedMPH, Mean Wind SpeedMPH, Max Gust SpeedMPH,PrecipitationIn, CloudCover, Events, WindDirDegrees
2013-1-1,55,48,41,45,43,39,93,73,63,30.15,30.11,30.09,6,6,6,15,7,,0.00,4,,5
2013-1-2,59,47,35,48,42,34,93,81,55,30.33,30.23,30.15,6,6,6,9,3,,0.00,1,,286
2013-1-3,57,47,37,48,42,36,93,81,67,30.42,30.39,30.33,6,6,4,12,3,,0.00,4,,333
2013-1-4,59,49,39,41,36,32,93,64,36,30.36,30.20,30.06,6,6,6,6,3,,0.00,3,,263
2013-1-5,57,48,39,37,35,30,87,56,38,30.06,29.94,29.80,6,6,6,14,6,,0.00,4,,313
2013-1-6,51,45,39,39,35,28,81,68,54,29.92,29.82,29.74,6,6,4,25,9,29,0.00,5,Rain,347
2013-1-7,51,44,37,34,26,18,76,49,30,30.04,29.92,29.86,6,6,6,22,8,33,0.00,4,,329
2013-1-8,41,37,33,32,28,19,87,71,48,30.21,30.15,30.04,6,6,2,22,14,32,0.00,4,Rain-Snow,358
2013-1-9,46,40,33,32,26,21,87,59,46,30.24,30.20,30.18,6,6,6,15,7,,0.00,3,,349
2013-1-10,51,42,32,37,29,21,93,63,33,30.18,30.13,30.04,6,6,6,13,3,,0.00,4,,236
2013-1-11,62,52,42,50,46,37,82,74,55,30.04,29.89,29.83,6,6,2,23,8,,0.00,4,Rain,208
2013-1-12,59,52,44,48,41,37,87,68,48,30.06,29.90,29.83,6,6,6,16,6,,0.00,2,Rain,261
2013-1-13,55,45,35,43,38,34,93,76,54,30.24,30.17,30.06,6,6,6,6,2,,0.00,2,,336
2013-1-14,59,48,37,48,42,36,93,80,63,30.30,30.27,30.24,6,6,6,10,3,,0.00,4,,299
2013-1-15,60,50,39,50,44,37,93,77,55,30.27,30.18,30.04,6,6,6,16,5,,0.00,5,Rain,184
2013-1-16,62,56,50,50,46,39,87,68,55,30.04,29.84,29.68,6,6,2,31,19,43,0.00,4,Rain-Thunderstorm,192
2013-1-17,60,54,48,50,44,37,77,66,51,29.80,29.74,29.68,6,6,6,26,12,,0.00,4,Rain,202
2013-1-18,59,52,46,50,44,36,82,70,51,29.68,29.53,29.47,6,6,2,32,21,44,0.00,5,Rain,208
2013-1-19,57,52,46,39,36,34,66,58,47,29.89,29.70,29.53,6,6,6,21,7,37,0.00,3,,227
2013-1-20,64,55,46,54,45,36,82,69,56,29.95,29.92,29.86,6,6,6,17,7,,0.00,4,,212
2013-1-21,64,55,46,52,48,43,88,71,45,29.95,29.80,29.68,6,6,6,24,8,,0.00,4,Thunderstorm,173
2013-1-22,62,56,50,50,45,41,82,65,48,29.83,29.76,29.68,6,6,6,17,9,18,0.00,2,,215
2013-1-23,59,54,46,45,40,36,81,60,44,29.98,29.92,29.80,6,6,6,15,8,,0.00,4,,246
2013-1-24,64,53,42,52,46,39,87,74,49,29.98,29.76,29.62,6,6,1,34,10,46,0.00,6,Rain-Thunderstorm,188
2013-1-25,59,50,41,48,43,37,93,73,59,29.68,29.59,29.50,6,6,4,29,10,44,0.00,5,Rain-Thunderstorm,197
2013-1-26,55,50,46,50,44,41,94,82,67,29.68,29.52,29.47,6,6,4,18,5,,0.00,6,Rain,6
2013-1-27,50,48,46,41,40,39,81,74,66,29.95,29.84,29.68,6,6,6,15,6,,0.00,6,Rain,21
2013-1-28,55,48,41,41,39,36,81,69,51,30.01,29.96,29.92,6,6,6,13,5,,0.00,4,,297
2013-1-29,50,44,39,43,39,34,87,78,66,30.12,30.07,30.01,6,6,6,14,4,,0.00,5,Rain,348
2013-1-30,55,48,41,39,34,25,87,61,35,30.09,30.03,29.98,6,6,6,12,5,,0.00,3,,342
2013-1-31,60,48,35,46,37,28,87,63,38,30.01,29.95,29.86,6,6,6,23,5,26,0.00,3,,285